User: anonymous   Login
Location: Chena
(64.8152°N, 147.9227°W)
Time: 15:07:10
(UTC+00:00)
Language:

JY1SAT - Orbit

View from above orbital plane
View from above orbital plane
View from above satellite
View from above satellite

Ground track
Ground track

The orbit data is extracted from the following two-line orbital elements,

1 43803U 18099AX  21101.90729882 -.00000084  00000-0 -23903-5 0  9991
2 43803  97.6676 173.9431 0013597 273.6439  86.3227 14.95791858128543
Epoch (UTC): 11 April 2021 21:46:30
Eccentricity: 0.0013597
inclination: 97.6676°
perigee height: 570 km
apogee height: 589 km
right ascension of ascending node: 173.9431°
argument of perigee: 273.6439°
revolutions per day: 14.95791858
mean anomaly at epoch: 86.3227°
orbit number at epoch: 12854

The dashed part of the orbit path shows where the satellite is in the earth's shadow,  

DLR